When you browse on this site, cookies collect data to enhance your experience and personalize the content and advertising you see.
Visit our Privacy Policy to learn more. By continuing to use the site, you agree to this use of cookies and data.
  • In Sweden
  • List of Countries
  • For 7 days
  • Water Temperature
  • Weather Map
  • Weather Widgets
  • user-avatar
    Login

    Hourly Weather Aguilar

    Today, 14 November, Thursday

    Time Temperature Precipitation Wind Pressure Humidity
    00:00 +7°C° 0 mm 3 mps 695 mmHg 79%
    01:00 +5°C° 0.5 mm 3 mps 695 mmHg 81%
    02:00 +5°C° 0.5 mm 3 mps 694 mmHg 84%
    03:00 +6°C° 0.5 mm 2 mps 693 mmHg 86%
    04:00 +5°C° 2 mm 2 mps 693 mmHg 88%
    05:00 +4°C° 2 mm 2 mps 693 mmHg 89%
    06:00 +3°C° 2 mm 2 mps 693 mmHg 91%
    07:00 +2°C° 0.4 mm 3 mps 693 mmHg 87%
    08:00 +2°C° 0.4 mm 3 mps 693 mmHg 83%
    09:00 +3°C° 0.4 mm 3 mps 693 mmHg 79%
    10:00 +4°C° 0 mm 3 mps 693 mmHg 71%
    11:00 +5°C° 0 mm 4 mps 692 mmHg 64%
    12:00 +6°C° 0 mm 5 mps 692 mmHg 56%
    13:00 +6°C° 0 mm 5 mps 691 mmHg 59%
    14:00 +6°C° 0 mm 4 mps 690 mmHg 61%
    15:00 +5°C° 0 mm 4 mps 689 mmHg 64%
    16:00 +4°C° 0.1 mm 3 mps 689 mmHg 69%
    17:00 +3°C° 0.1 mm 3 mps 689 mmHg 75%
    18:00 +3°C° 0.1 mm 2 mps 689 mmHg 81%
    19:00 +2°C° 0.5 mm 3 mps 690 mmHg 84%
    20:00 +1°C° 0.5 mm 4 mps 691 mmHg 86%
    21:00 +1°C° 0.5 mm 4 mps 691 mmHg 89%
    22:00 0°C° 0 mm 4 mps 692 mmHg 89%
    23:00 +1°C° 0 mm 3 mps 692 mmHg 88%

    Tomorrow, 15 November, Friday

    Time Temperature Precipitation Wind Pressure Humidity
    00:00 0°C° 0 mm 3 mps 692 mmHg 88%
    01:00 0°C° 0.1 mm 3 mps 692 mmHg 88%
    02:00 +1°C° 0.1 mm 2 mps 692 mmHg 88%
    03:00 +1°C° 0.1 mm 2 mps 692 mmHg 88%
    04:00 +1°C° 1 mm 2 mps 692 mmHg 90%
    05:00 +1°C° 1 mm 2 mps 692 mmHg 93%
    06:00 +2°C° 1 mm 1 mps 692 mmHg 95%
    07:00 +1°C° 0.2 mm 2 mps 693 mmHg 94%
    08:00 +1°C° 0.2 mm 3 mps 693 mmHg 93%
    09:00 +1°C° 0.2 mm 3 mps 694 mmHg 92%
    10:00 +1°C° 0.1 mm 4 mps 694 mmHg 89%
    11:00 +3°C° 0.1 mm 4 mps 694 mmHg 86%
    12:00 +2°C° 0.1 mm 5 mps 695 mmHg 83%
    13:00 +3°C° 0.1 mm 4 mps 695 mmHg 83%
    14:00 +3°C° 0.1 mm 4 mps 695 mmHg 82%
    15:00 +3°C° 0.1 mm 4 mps 695 mmHg 82%
    16:00 +2°C° 0.2 mm 3 mps 695 mmHg 86%
    17:00 +2°C° 0.2 mm 3 mps 695 mmHg 90%
    18:00 +2°C° 0.2 mm 2 mps 696 mmHg 93%
    19:00 +2°C° 0.8 mm 2 mps 696 mmHg 94%
    20:00 +2°C° 0.8 mm 2 mps 697 mmHg 95%
    21:00 +2°C° 0.8 mm 2 mps 697 mmHg 95%
    22:00 +2°C° 1.2 mm 2 mps 698 mmHg 95%
    23:00 +1°C° 1.2 mm 3 mps 698 mmHg 95%

    Day after tomorrow, 16 November, Saturday

    Time Temperature Precipitation Wind Pressure Humidity
    00:00 +1°C° 1.2 mm 3 mps 699 mmHg 95%
    01:00 +1°C° 0.1 mm 3 mps 699 mmHg 94%
    02:00 +1°C° 0.1 mm 3 mps 699 mmHg 94%
    03:00 +2°C° 0.1 mm 2 mps 699 mmHg 94%
    04:00 +2°C° 0 mm 2 mps 699 mmHg 94%
    05:00 +1°C° 0 mm 3 mps 699 mmHg 94%
    06:00 +1°C° 0 mm 3 mps 699 mmHg 94%
    07:00 +1°C° 1.2 mm 3 mps 699 mmHg 94%
    08:00 +1°C° 1.2 mm 3 mps 700 mmHg 95%
    09:00 +1°C° 1.2 mm 3 mps 700 mmHg 95%
    10:00 +1°C° 1.7 mm 3 mps 700 mmHg 95%
    11:00 0°C° 1.7 mm 4 mps 700 mmHg 94%
    12:00 0°C° 1.7 mm 4 mps 700 mmHg 94%
    13:00 +1°C° 0.6 mm 4 mps 700 mmHg 94%
    14:00 +2°C° 0.6 mm 3 mps 700 mmHg 95%
    15:00 +2°C° 0.6 mm 3 mps 700 mmHg 95%
    16:00 +1°C° 0.7 mm 4 mps 700 mmHg 94%
    17:00 +1°C° 0.7 mm 4 mps 701 mmHg 94%
    18:00 +1°C° 0.7 mm 4 mps 701 mmHg 93%
    19:00 +1°C° 1 mm 4 mps 701 mmHg 94%
    20:00 +1°C° 1 mm 4 mps 702 mmHg 94%
    21:00 +1°C° 1 mm 4 mps 702 mmHg 94%
    22:00 +3°C° 0.3 mm 4 mps 702 mmHg 94%
    23:00 +3°C° 0.3 mm 3 mps 702 mmHg 94%

    17 November, Sunday

    Time Temperature Precipitation Wind Pressure Humidity
    00:00 +3°C° 0.3 mm 3 mps 702 mmHg 94%
    01:00 +3°C° 0.1 mm 3 mps 702 mmHg 94%
    02:00 +3°C° 0.1 mm 3 mps 702 mmHg 93%
    03:00 +2°C° 0.1 mm 3 mps 701 mmHg 93%
    04:00 +2°C° 0 mm 3 mps 701 mmHg 93%
    05:00 +3°C° 0 mm 2 mps 701 mmHg 93%
    06:00 +3°C° 0 mm 2 mps 701 mmHg 93%
    07:00 +3°C° 0 mm 2 mps 701 mmHg 90%
    08:00 +4°C° 0 mm 2 mps 701 mmHg 88%
    09:00 +3°C° 0 mm 3 mps 701 mmHg 86%
    10:00 +4°C° 0 mm 3 mps 701 mmHg 84%
    11:00 +4°C° 0 mm 4 mps 701 mmHg 81%
    12:00 +5°C° 0 mm 4 mps 701 mmHg 79%
    13:00 +4°C° 0.3 mm 4 mps 700 mmHg 83%
    14:00 +4°C° 0.3 mm 3 mps 700 mmHg 87%
    15:00 +3°C° 0.3 mm 3 mps 700 mmHg 92%
    16:00 +4°C° 0.3 mm 2 mps 700 mmHg 92%
    17:00 +4°C° 0.3 mm 2 mps 700 mmHg 93%
    18:00 +4°C° 0.3 mm 2 mps 700 mmHg 94%
    19:00 +4°C° 0.3 mm 2 mps 700 mmHg 94%
    20:00 +4°C° 0.3 mm 2 mps 700 mmHg 94%
    21:00 +4°C° 0.3 mm 2 mps 700 mmHg 94%
    22:00 +4°C° 0.8 mm 2 mps 700 mmHg 94%
    23:00 +4°C° 0.8 mm 2 mps 701 mmHg 95%

    18 November, Monday

    Time Temperature Precipitation Wind Pressure Humidity
    00:00 +4°C° 0.8 mm 2 mps 701 mmHg 95%
    01:00 +4°C° 0.3 mm 2 mps 701 mmHg 95%
    02:00 +3°C° 0.3 mm 3 mps 701 mmHg 95%
    03:00 +4°C° 0.3 mm 3 mps 702 mmHg 95%
    04:00 +4°C° 0.3 mm 3 mps 702 mmHg 94%
    05:00 +4°C° 0.3 mm 4 mps 702 mmHg 93%
    06:00 +4°C° 0.3 mm 4 mps 703 mmHg 93%
    07:00 +4°C° 0.2 mm 4 mps 703 mmHg 91%
    08:00 +4°C° 0.2 mm 4 mps 704 mmHg 89%
    09:00 +5°C° 0.2 mm 4 mps 704 mmHg 88%
    10:00 +5°C° 0.2 mm 4 mps 704 mmHg 86%
    11:00 +6°C° 0.2 mm 4 mps 704 mmHg 84%
    12:00 +6°C° 0.2 mm 5 mps 704 mmHg 82%
    13:00 +6°C° 0.1 mm 4 mps 704 mmHg 80%
    14:00 +6°C° 0.1 mm 4 mps 704 mmHg 77%
    15:00 +6°C° 0.1 mm 4 mps 704 mmHg 75%
    16:00 +5°C° 0 mm 3 mps 704 mmHg 79%
    17:00 +5°C° 0 mm 2 mps 704 mmHg 83%
    18:00 +5°C° 0 mm 1 mps 704 mmHg 87%
    19:00 +5°C° 0 mm 1 mps 704 mmHg 87%
    20:00 +4°C° 0 mm 1 mps 704 mmHg 87%
    21:00 +4°C° 0 mm 1 mps 704 mmHg 87%
    22:00 +4°C° 0 mm 1 mps 704 mmHg 86%
    23:00 +4°C° 0 mm 1 mps 704 mmHg 85%

    19 November, Tuesday

    Time Temperature Precipitation Wind Pressure Humidity
    00:00 +4°C° 0 mm 1 mps 704 mmHg 84%
    01:00 +4°C° 0 mm 1 mps 703 mmHg 84%
    02:00 +4°C° 0 mm 1 mps 703 mmHg 83%
    03:00 +4°C° 0 mm 1 mps 702 mmHg 82%
    04:00 +4°C° 0 mm 1 mps 702 mmHg 83%
    05:00 +4°C° 0 mm 1 mps 702 mmHg 83%
    06:00 +4°C° 0 mm 2 mps 702 mmHg 84%
    07:00 +4°C° 0.1 mm 2 mps 702 mmHg 85%
    08:00 +4°C° 0.1 mm 2 mps 702 mmHg 87%
    09:00 +4°C° 0.1 mm 2 mps 702 mmHg 88%
    10:00 +4°C° 0.2 mm 3 mps 702 mmHg 87%
    11:00 +4°C° 0.2 mm 3 mps 701 mmHg 86%
    12:00 +4°C° 0.2 mm 3 mps 701 mmHg 86%
    13:00 +4°C° 0 mm 3 mps 701 mmHg 86%
    14:00 +4°C° 0 mm 3 mps 700 mmHg 86%
    15:00 +4°C° 0 mm 3 mps 699 mmHg 85%
    16:00 +4°C° 0.1 mm 3 mps 699 mmHg 88%
    17:00 +3°C° 0.1 mm 3 mps 699 mmHg 90%
    18:00 +3°C° 0.1 mm 3 mps 699 mmHg 93%
    19:00 +3°C° 0 mm 3 mps 699 mmHg 93%
    20:00 +3°C° 0 mm 3 mps 699 mmHg 94%
    21:00 +3°C° 0 mm 3 mps 699 mmHg 95%
    22:00 +3°C° 0 mm 3 mps 699 mmHg 95%
    23:00 +4°C° 0 mm 2 mps 699 mmHg 95%
    Show more